TimeEDT,TemperatureF,Dew PointF,Humidity,Sea Level PressureIn,VisibilityMPH,Wind Direction,Wind SpeedMPH,Gust SpeedMPH,PrecipitationIn,Events,Conditions,WindDirDegrees,DateUTC
12:53 AM,73.0,54.0,51,30.20,10.0,East,8.1,-,N/A,,Clear,80,2013-05-15 04:53:00
1:53 AM,73.0,53.1,49,30.19,10.0,East,9.2,-,N/A,,Clear,90,2013-05-15 05:53:00
2:53 AM,72.0,53.1,51,30.17,10.0,East,6.9,-,N/A,,Clear,90,2013-05-15 06:53:00
3:53 AM,72.0,54.0,53,30.17,10.0,East,4.6,-,N/A,,Clear,90,2013-05-15 07:53:00
4:53 AM,61.0,55.9,83,30.17,10.0,West,5.8,-,N/A,,Clear,280,2013-05-15 08:53:00
5:53 AM,60.1,57.0,90,30.17,10.0,West,3.5,-,N/A,,Clear,280,2013-05-15 09:53:00
6:53 AM,61.0,59.0,93,30.19,10.0,WNW,3.5,-,N/A,,Scattered Clouds,300,2013-05-15 10:53:00
7:53 AM,66.0,60.1,81,30.20,10.0,Calm,Calm,-,N/A,,Partly Cloudy,0,2013-05-15 11:53:00
8:53 AM,75.9,59.0,56,30.21,10.0,Calm,Calm,-,N/A,,Scattered Clouds,0,2013-05-15 12:53:00
9:53 AM,78.1,57.0,48,30.22,10.0,ESE,9.2,-,N/A,,Mostly Cloudy,110,2013-05-15 13:53:00
10:53 AM,79.0,55.9,45,30.22,10.0,ENE,8.1,-,N/A,,Scattered Clouds,70,2013-05-15 14:53:00
11:53 AM,79.0,55.0,44,30.22,10.0,NE,11.5,-,N/A,,Scattered Clouds,50,2013-05-15 15:53:00
12:53 PM,80.1,55.0,42,30.22,10.0,East,10.4,-,N/A,,Clear,90,2013-05-15 16:53:00
1:53 PM,80.1,55.0,42,30.21,10.0,East,12.7,-,N/A,,Clear,90,2013-05-15 17:53:00
2:53 PM,81.0,55.9,42,30.18,10.0,ESE,12.7,-,N/A,,Clear,110,2013-05-15 18:53:00
3:53 PM,80.1,55.9,43,30.16,10.0,East,13.8,19.6,N/A,,Clear,80,2013-05-15 19:53:00
4:53 PM,79.0,57.0,47,30.15,10.0,East,11.5,18.4,N/A,,Clear,100,2013-05-15 20:53:00
5:53 PM,78.1,57.9,50,30.13,10.0,ESE,6.9,-,N/A,,Clear,120,2013-05-15 21:53:00
6:53 PM,77.0,57.9,52,30.13,10.0,ESE,9.2,-,N/A,,Clear,110,2013-05-15 22:53:00
7:53 PM,75.0,57.9,55,30.13,10.0,ESE,10.4,-,N/A,,Clear,120,2013-05-15 23:53:00
8:53 PM,75.0,59.0,57,30.14,10.0,ESE,5.8,-,N/A,,Clear,110,2013-05-16 00:53:00
9:53 PM,73.9,60.1,62,30.14,10.0,ESE,6.9,-,N/A,,Clear,120,2013-05-16 01:53:00
10:53 PM,73.9,60.1,62,30.14,10.0,SSE,8.1,-,N/A,,Partly Cloudy,150,2013-05-16 02:53:00
11:53 PM,73.9,60.1,62,30.14,10.0,SE,8.1,-,N/A,,Clear,140,2013-05-16 03:53:00